Home   Weather   Washington DC   Past weeks

Flag for USA Past Weather in Washington DC, USA — Yesterday and Last 2 Weeks

Now
82 °F

Scattered clouds.


Feels Like: 84 °F
Forecast: 71 / 85 °F
Wind: 13 mph from South

Location: Reagan National Airport

Current Time: May 25, 2018 at 8:38:28 pm

Latest Report: May 25, 2018 at 7:52 pm


Visibility: 10 mi

Pressure: 29.90 "Hg

Humidity: 56%

Dew Point: 65 °F

Location of Washington DCLocation

Past Weather in Washington DC — Graph

°F

Washington DC Temperature Yesterday

Maximum temperature yesterday: 86 °F (at 3:52 pm)
Minimum temperature yesterday: 64 °F (at 5:52 am)
Average temperature yesterday: 74 °F

High & Low Weather Summary for the Past Weeks

 TemperatureHumidityPressure
High89 °F (May 15, 3:52 pm)93% (May 14, 6:41 am)30.22 "Hg (May 14, 6:41 am)
Low57 °F (May 19, 2:52 am)20% (May 24, 4:52 pm)29.81 "Hg (May 10, 6:52 pm)
Average70 °F78%30.04 "Hg
* Reported May 10 6:52 pm — May 25 6:52 pm, Washington DC. Weather by CustomWeather, © 2018

Note: Actual official high and low records may vary slightly from our data, if they occured in-between our weather recording intervals... More about our weather records

Advertising

Washington DC Weather History for the Previous 24 Hours

Scroll right to see more
 ConditionsComfort  
Time TempWeatherWind HumidityBarometerVisibility
6:52 pm
Fri, May 25
84 °FPartly sunny.13 mph53%29.90 "Hg10 mi
5:52 pm84 °FPartly sunny.15 mph55%29.91 "Hg10 mi
4:52 pm85 °FBroken clouds.14 mph53%29.92 "Hg10 mi
3:52 pm84 °FBroken clouds.13 mph55%29.94 "Hg10 mi
2:52 pm83 °FPartly sunny.17 mph55%29.96 "Hg10 mi
1:52 pm84 °FPartly sunny.9 mph51%29.99 "Hg10 mi
12:52 pm82 °FScattered clouds.12 mph53%30.01 "Hg10 mi
11:52 am82 °FScattered clouds.10 mph53%30.04 "Hg10 mi
10:52 am79 °FScattered clouds.12 mph58%30.06 "Hg10 mi
9:52 am75 °FPassing clouds.9 mph66%30.08 "Hg10 mi
8:52 am70 °FSunny.9 mph76%30.09 "Hg10 mi
7:52 am67 °FSunny.9 mph85%30.10 "Hg10 mi
6:52 am66 °FPassing clouds.6 mph84%30.10 "Hg10 mi
5:52 am63 °FPassing clouds.6 mph84%30.11 "Hg10 mi
4:52 am65 °FPassing clouds.5 mph81%30.10 "Hg10 mi
3:52 am66 °FPassing clouds.5 mph81%30.11 "Hg10 mi
2:52 am66 °FPassing clouds.7 mph81%30.11 "Hg10 mi
1:52 am67 °FPassing clouds.6 mph79%30.12 "Hg10 mi
12:52 am68 °FClear.6 mph76%30.14 "Hg10 mi
11:52 pm
Thu, May 24
70 °FClear.No wind71%30.14 "Hg10 mi
10:52 pm70 °FClear.7 mph68%30.14 "Hg10 mi
9:52 pm72 °FClear.9 mph57%30.14 "Hg10 mi
Weather by CustomWeather, © 2018

See weather overview